Tracking 19846 objects as of 20-Sep-2019
HD Live streaming from Space Station
objects crossing your sky now

METEOR M2-2

Track METEOR M2-2 now!
10-day predictions
METEOR M2-2 is classified as:


NORAD ID: 44387
Int'l Code: 2019-038A
Perigee: 820.4 km
Apogee: 822.1 km
Inclination: 98.6 °
Period: 101.2 minutes
Semi major axis: 7192 km
RCS: Unknown
Launch date: July 5, 2019
Source: Commonwealth of Independent States (former USSR) (CIS)
Launch site: VOSTOCHNY COSMODROME (VOSTO)

Uplink (MHz):
Downlink (MHz): 137.100/137.900
Beacon (MHz):
Mode: 72Kbps QPSK
Call sign:
Status:

aabbcc
Your satellite tracking list
Your tracking list is empty




NASA's NSSDC Master Catalog

Two Line Element Set (TLE):
1 44387U 19038A   19263.48448843 -.00000030  00000-0  58849-5 0  9994
2 44387  98.5778 224.5567 0001135 174.7421 185.3769 14.23334126 10985
Source of the keplerian elements: AFSPC